M0HZQ-1 Weather Reports


time (UTC)temp
C
wind
direction
speed
KPH
gust
KPH
rain 1hr
cm
rain 24hr
cm
rain mn
cm
humidity
%
barometer
mb
20260507064453 12 0 0.0 0.0 0.00 0.00 0.00 60 1016.6
20260507062624 11 0 0.0 0.0 0.00 0.00 0.00 62 1016.5
20260507060729 11 0 0.0 0.0 0.00 0.00 0.00 61 1016.4
20260507054949 11 0 0.0 0.0 0.00 0.00 0.00 60 1016.4
20260507053129 12 0 0.0 0.0 0.00 0.00 0.00 61 1016.3
20260507051204 12 0 0.0 0.0 0.00 0.00 0.00 63 1016.2
20260507045504 12 0 0.0 0.0 0.00 0.00 0.00 64 1016.1
20260507043714 11 0 0.0 0.0 0.00 0.00 0.00 65 1015.9
20260507042054 10 0 0.0 0.0 0.00 0.00 0.00 66 1016.0
20260507040254 10 0 0.0 0.0 0.00 0.00 0.00 66 1015.8
20260507034554 10 0 0.0 0.0 0.00 0.00 0.00 66 1015.9
20260507032934 10 0 0.0 0.0 0.00 0.00 0.00 66 1015.8
20260507031247 10 0 0.0 0.0 0.00 0.00 0.00 66 1015.8
20260507025259 10 0 0.0 0.0 0.00 0.00 0.00 65 1015.8
20260507023314 10 0 0.0 0.0 0.00 0.00 0.00 64 1015.8
20260507021504 10 0 0.0 0.0 0.00 0.00 0.00 64 1015.7
20260507015709 10 0 0.0 0.0 0.00 0.00 0.00 64 1015.6
20260507013944 10 0 0.0 0.0 0.00 0.00 0.00 64 1015.8
20260507012129 10 0 0.0 0.0 0.00 0.00 0.00 63 1015.6
20260507010134 11 0 0.0 0.0 0.00 0.00 0.00 63 1015.7
20260507004514 11 0 0.0 0.0 0.00 0.00 0.00 63 1015.6
20260507002817 10 0 0.0 0.0 0.00 0.00 0.00 63 1015.7
20260507001122 10 0 0.0 0.0 0.00 0.00 0.00 63 1015.8
20260506235404 10 0 0.0 0.0 0.00 0.00 0.00 62 1015.8
20260506233517 11 0 0.0 0.0 0.00 0.00 0.00 61 1015.5
20260506231904 11 0 0.0 0.0 0.00 0.00 0.00 61 1015.6
20260506230024 10 0 0.0 0.0 0.00 0.00 0.00 61 1015.6
20260506224417 11 0 0.0 0.0 0.00 0.00 0.00 60 1015.7
20260506222509 10 0 0.0 0.0 0.00 0.00 0.00 59 1015.5
20260506220837 11 0 0.0 0.0 0.00 0.00 0.00 58 1015.4
20260506215044 11 0 0.0 0.0 0.00 0.00 0.00 57 1015.3
20260506213238 11 0 0.0 0.0 0.00 0.00 0.00 55 1015.5
20260506211624 11 0 0.0 0.0 0.00 0.00 0.00 54 1015.4
20260506205824 11 0 0.0 0.0 0.00 0.00 0.00 54 1015.2
20260506203939 11 0 0.0 0.0 0.00 0.00 0.00 52 1015.2
20260506202134 12 0 0.0 0.0 0.00 0.00 0.00 51 1015.1
20260506200524 12 0 0.0 0.0 0.00 0.00 0.00 51 1014.8
20260506194804 12 0 0.0 0.0 0.00 0.00 0.00 50 1014.7
20260506193048 12 0 0.0 0.0 0.00 0.00 0.00 48 1014.6
20260506191434 12 0 0.0 0.0 0.00 0.00 0.00 47 1014.5
20260506185644 13 0 0.0 0.0 0.00 0.00 0.00 47 1014.4
20260506183757 13 0 0.0 0.0 0.00 0.00 0.00 46 1014.3
20260506181909 13 0 0.0 0.0 0.00 0.00 0.00 46 1014.1
20260506175937 13 0 0.0 0.0 0.00 0.00 0.00 44 1014.0
20260506174224 13 0 0.0 0.0 0.00 0.00 0.00 42 1013.6
20260506172557 14 0 0.0 0.0 0.00 0.00 0.00 42 1013.5
20260506170629 15 0 0.0 0.0 0.00 0.00 0.00 41 1013.5
20260506164804 15 0 0.0 0.0 0.00 0.00 0.00 41 1013.6
20260506163029 15 0 0.0 0.0 0.00 0.00 0.00 40 1013.5
20260506161303 15 0 0.0 0.0 0.00 0.00 0.00 41 1013.6
20260506155554 15 0 0.0 0.0 0.00 0.00 0.00 42 1013.6
20260506153649 15 0 0.0 0.0 0.00 0.00 0.00 42 1013.6
20260506152008 15 0 0.0 0.0 0.00 0.00 0.00 43 1013.6
20260506150233 15 0 0.0 0.0 0.00 0.00 0.00 43 1013.6
20260506144507 15 0 0.0 0.0 0.00 0.00 0.00 44 1013.7
20260506142608 14 0 0.0 0.0 0.00 0.00 0.00 46 1013.6
20260506140904 14 0 0.0 0.0 0.00 0.00 0.00 46 1013.7
20260506135014 14 0 0.0 0.0 0.00 0.00 0.00 46 1013.8
20260506133414 15 0 0.0 0.0 0.00 0.00 0.00 45 1013.7
20260506131434 16 0 0.0 0.0 0.00 0.00 0.00 43 1013.8
20260506125709 15 0 0.0 0.0 0.00 0.00 0.00 44 1013.7
20260506123844 15 0 0.0 0.0 0.00 0.00 0.00 44 1013.7
20260506121857 15 0 0.0 0.0 0.00 0.00 0.00 43 1013.8
20260506120253 14 0 0.0 0.0 0.00 0.00 0.00 45 1013.8
20260506114544 15 0 0.0 0.0 0.00 0.00 0.00 44 1013.7
20260506112803 15 0 0.0 0.0 0.00 0.00 0.00 45 1013.7
20260506110804 15 0 0.0 0.0 0.00 0.00 0.00 45 1013.7
20260506105134 14 0 0.0 0.0 0.00 0.00 0.00 45 1013.8
20260506103254 13 0 0.0 0.0 0.00 0.00 0.00 45 1013.7
20260506101504 13 0 0.0 0.0 0.00 0.00 0.00 46 1013.7
20260506095844 13 0 0.0 0.0 0.00 0.00 0.00 46 1013.7
20260506093924 13 0 0.0 0.0 0.00 0.00 0.00 46 1013.8
20260506092214 13 0 0.0 0.0 0.00 0.00 0.00 47 1013.8
20260506090509 13 0 0.0 0.0 0.00 0.00 0.00 48 1013.6
20260506084544 12 0 0.0 0.0 0.00 0.00 0.00 49 1013.6
20260506082609 12 0 0.0 0.0 0.00 0.00 0.00 51 1013.3
20260506080859 11 0 0.0 0.0 0.00 0.00 0.00 54 1013.5
20260506073337 12 0 0.0 0.0 0.00 0.00 0.00 54 1013.5
20260506071724 11 0 0.0 0.0 0.00 0.00 0.00 56 1013.4